C/2019 L1 ( PanSTARRS )

Japanese version
Home page
Updated on July 1, 2019

---------------------------------------------------------------------

* Profile

Discovery Date June 12, 2019
Magnitude 20.1 mag
Discoverer Pan-STARRS 2 telescope (Haleakala)

* Orbital Elements

Epoch 2019 Aug. 25.0 TT = JDT 2458720.5                                         
T 2019 Aug. 11.42506 TT                                 MPCLINUX                
q   2.8899466            (2000.0)            P               Q                  
n   0.03193209     Peri.   49.95813     +0.55328887     +0.81604829             
a   9.8397604      Node   254.40779     -0.80731506     +0.47589619             
e   0.7062991      Incl.    9.99304     -0.20521652     +0.32800611             
P  30.9                                                                         
From 43 observations 2019 May 30-June 26, mean residual 0".4.                   

* Magnitudes Graph

        m1 = 13.5 + 5 log d + 10.0 log r

---------------------------------------------------------------------

The orbital elements are published on M.P.E.C. 2019-M77.
The magnitudes graphs are made with Comet for Windows.

---------------------------------------------------------------------

Copyright(C) Seiichi Yoshida (comet@aerith.net). All rights reserved.